Weather History for Iowa Falls, IA

Change the Weather History Date:

Saturday, September 15, 2012

  Actual Average Record
Temperature  
Mean Temperature 62 °F -  
Max Temperature 77 °F 72 °F 94 °F (1955)
Min Temperature 46 °F 51 °F 33 °F (2011)
Degree Days  
Heating Degree Days 4    
Growing Degree Days 12 (Base 50)    
Moisture  
Dew Point 43 °F    
Average Humidity 56    
Maximum Humidity 86    
Minimum Humidity 25    
Precipitation  
Precipitation 0.01 in - - ()
Sea Level Pressure  
Sea Level Pressure 30.22 in    
Wind  
Wind Speed 6 mph (SSW)    
Max Wind Speed 16 mph    
Max Gust Speed 22 mph    
Visibility 10 miles    
Events      
Averages and records for this station are not official NWS values.
T = Trace of Precipitation, MM = Missing Value Source: NWS Daily Summary

Daily Weather History Graph

Daily Weather History Graph

Search for Another Location

Airport:

Trip Planner

Search our weather history database for the weather conditions in past years. The results will help you decide how hot, cold, wet, or windy it might be!

Date:

Astronomy

Sep. 15, 2012 Rise Set
Actual Time 6:53 AM CDT 7:21 PM CDT
Civil Twilight 6:25 AM CDT 7:50 PM CDT
Nautical Twilight 5:51 AM CDT 8:23 PM CDT
Astronomical Twilight 5:17 AM CDT 8:57 PM CDT
Moon 6:25 AM CDT (9/15) 6:51 PM CDT (9/15)
Length of Visible Light 13h 24m
Length of Day
12h 28m
Waning Crescent, 0% of the Moon is Illuminated
Sep 15
Waning Crescent
Sep 15
New
Sep 22
First Quarter
Sep 29
Full
Oct 8
Last Quarter

Hourly Weather History & Observations

Time (CDT) Temp. Dew Point Humidity Pressure Visibility Wind Dir Wind Speed Gust Speed Precip Events Conditions
12:15 AM 56.3 °F 44.8 °F 65% 30.30 in 10.0 mi SSW 4.6 mph - N/A   Clear
12:35 AM 55.4 °F 44.8 °F 67% 30.30 in 10.0 mi SSW 4.6 mph - N/A   Clear
12:55 AM 54.3 °F 45.0 °F 71% 30.30 in 10.0 mi Calm Calm - N/A   Clear
1:15 AM 51.8 °F 44.8 °F 77% 30.30 in 10.0 mi Calm Calm - N/A   Clear
1:35 AM 52.0 °F 45.1 °F 77% 30.30 in 10.0 mi Calm Calm - N/A   Clear
1:55 AM 50.0 °F 44.6 °F 82% 30.30 in 10.0 mi Calm Calm - N/A   Clear
2:15 AM 51.1 °F 44.4 °F 78% 30.30 in 10.0 mi Calm Calm - N/A   Clear
2:35 AM 50.9 °F 45.0 °F 80% 30.29 in 10.0 mi Calm Calm - N/A   Clear
2:55 AM 50.5 °F 45.0 °F 81% 30.29 in 10.0 mi Calm Calm - N/A   Clear
3:15 AM 50.9 °F 44.8 °F 80% 30.29 in 10.0 mi Calm Calm - N/A   Clear
3:35 AM 49.3 °F 44.4 °F 83% 30.29 in 10.0 mi South 3.5 mph - N/A   Clear
3:55 AM 48.9 °F 44.2 °F 84% 30.29 in 10.0 mi South 3.5 mph - N/A   Clear
4:15 AM 47.8 °F 43.7 °F 86% 30.29 in 10.0 mi South 6.9 mph - N/A   Clear
4:35 AM 48.2 °F 44.1 °F 86% 30.28 in 10.0 mi South 4.6 mph - N/A   Clear
4:55 AM 48.4 °F 43.9 °F 84% 30.28 in 10.0 mi South 3.5 mph - N/A   Clear
5:15 AM 47.8 °F 43.0 °F 83% 30.29 in 10.0 mi Calm Calm - N/A   Clear
5:35 AM 48.0 °F 43.2 °F 83% 30.29 in 10.0 mi South 3.5 mph - N/A   Clear
5:55 AM 47.7 °F 43.2 °F 84% 30.29 in 10.0 mi Calm Calm - N/A   Clear
6:15 AM 46.9 °F 42.8 °F 86% 30.29 in 10.0 mi South 3.5 mph - N/A   Clear
6:35 AM 47.3 °F 43.0 °F 85% 30.29 in 10.0 mi Calm Calm - N/A   Clear
6:55 AM 46.8 °F 42.6 °F 85% 30.29 in 10.0 mi South 4.6 mph - N/A   Clear
7:15 AM 47.5 °F 42.8 °F 84% 30.29 in 10.0 mi South 4.6 mph - 0.01 in   Clear
7:35 AM 49.1 °F 43.7 °F 82% 30.29 in 10.0 mi SSW 3.5 mph - 0.01 in   Clear
7:55 AM 51.4 °F 45.0 °F 79% 30.30 in 10.0 mi Calm Calm - 0.01 in   Clear
8:15 AM 53.6 °F 45.7 °F 75% 30.30 in 10.0 mi SW 3.5 mph - N/A   Clear
8:35 AM 55.0 °F 46.2 °F 72% 30.30 in 10.0 mi SW 3.5 mph - N/A   Clear
9:15 AM 61.5 °F 46.2 °F 57% 30.29 in 10.0 mi SW 8.1 mph - N/A   Clear
9:35 AM 64.2 °F 43.9 °F 48% 30.29 in 10.0 mi SSW 10.4 mph - N/A   Clear
9:55 AM 65.7 °F 40.3 °F 39% 30.29 in 10.0 mi SW 12.7 mph 18.4 mph N/A   Clear
10:15 AM 67.6 °F 40.1 °F 37% 30.29 in 10.0 mi SW 12.7 mph 17.3 mph N/A   Clear
10:35 AM 68.9 °F 39.7 °F 35% 30.28 in 10.0 mi SW 15.0 mph - N/A   Clear
10:55 AM 69.1 °F 40.8 °F 36% 30.27 in 10.0 mi SSW 15.0 mph 18.4 mph N/A   Clear
11:15 AM 69.6 °F 40.1 °F 34% 30.26 in 10.0 mi SSW 12.7 mph 19.6 mph N/A   Clear
11:35 AM 71.4 °F 39.7 °F 32% 30.26 in 10.0 mi SW 16.1 mph 21.9 mph N/A   Clear
11:55 AM 72.1 °F 39.7 °F 31% 30.25 in 10.0 mi South 16.1 mph 21.9 mph N/A   Clear
12:15 PM 72.7 °F 40.8 °F 32% 30.24 in 10.0 mi SW 13.8 mph 19.6 mph N/A   Clear
12:35 PM 73.6 °F 39.9 °F 30% 30.24 in 10.0 mi SW 13.8 mph 19.6 mph N/A   Clear
12:55 PM 74.1 °F 40.3 °F 29% 30.23 in 10.0 mi SSW 12.7 mph 17.3 mph N/A   Clear
1:15 PM 74.5 °F 39.9 °F 29% 30.22 in 10.0 mi SW 15.0 mph 21.9 mph N/A   Clear
1:35 PM 75.4 °F 40.6 °F 29% 30.21 in 10.0 mi South 11.5 mph - N/A   Clear
1:55 PM 75.6 °F 40.8 °F 29% 30.21 in 10.0 mi South 12.7 mph - N/A   Clear
2:15 PM 76.1 °F 40.5 °F 28% 30.20 in 10.0 mi South 11.5 mph 19.6 mph N/A   Clear
2:35 PM 76.5 °F 40.1 °F 27% 30.19 in 10.0 mi SSW 11.5 mph 18.4 mph N/A   Clear
3:15 PM 76.8 °F 38.8 °F 25% 30.17 in 10.0 mi SSW 12.7 mph 20.7 mph N/A   Clear
3:55 PM 76.8 °F 41.4 °F 28% 30.16 in 10.0 mi SSW 16.1 mph 21.9 mph N/A   Clear
4:15 PM 77.0 °F 41.7 °F 28% 30.16 in 10.0 mi SSW 15.0 mph 18.4 mph N/A   Clear
4:35 PM 76.6 °F 41.2 °F 28% 30.16 in 10.0 mi South 11.5 mph 16.1 mph N/A   Clear
4:55 PM 77.0 °F 40.6 °F 27% 30.15 in 10.0 mi SSW 10.4 mph 17.3 mph N/A   Clear
5:15 PM 76.5 °F 41.5 °F 29% 30.15 in 10.0 mi SSW 11.5 mph - N/A   Clear
5:35 PM 75.6 °F 41.0 °F 29% 30.14 in 10.0 mi SSW 11.5 mph - N/A   Clear
5:55 PM 75.2 °F 41.7 °F 30% 30.14 in 10.0 mi South 11.5 mph 17.3 mph N/A   Clear
6:15 PM 74.5 °F 41.4 °F 30% 30.13 in 10.0 mi South 9.2 mph - N/A   Clear
6:35 PM 73.4 °F 41.7 °F 32% 30.13 in 10.0 mi SSW 6.9 mph - N/A   Clear
6:55 PM 71.6 °F 41.9 °F 34% 30.13 in 10.0 mi SSW 5.8 mph - N/A   Clear
7:15 PM 68.9 °F 42.8 °F 39% 30.12 in 10.0 mi SSW 4.6 mph - N/A   Clear
7:35 PM 65.7 °F 43.5 °F 45% 30.12 in 10.0 mi SSW 5.8 mph - N/A   Clear
7:55 PM 64.0 °F 43.9 °F 48% 30.12 in 10.0 mi South 4.6 mph - N/A   Clear
8:15 PM 61.7 °F 44.4 °F 53% 30.12 in 10.0 mi SSW 5.8 mph - N/A   Clear
8:35 PM 60.3 °F 45.0 °F 57% 30.12 in 10.0 mi South 6.9 mph - N/A   Clear
8:55 PM 58.5 °F 45.5 °F 62% 30.12 in 10.0 mi South 8.1 mph - N/A   Clear
9:15 PM 56.5 °F 45.5 °F 67% 30.12 in 10.0 mi South 8.1 mph - N/A   Clear
9:35 PM 55.9 °F 45.5 °F 68% 30.12 in 10.0 mi South 8.1 mph - N/A   Clear
10:15 PM 54.5 °F 45.1 °F 71% 30.12 in 10.0 mi South 5.8 mph - N/A   Clear
10:55 PM 54.3 °F 44.8 °F 70% 30.12 in 10.0 mi South 6.9 mph - N/A   Clear
11:15 PM 54.0 °F 44.6 °F 71% 30.12 in 10.0 mi South 6.9 mph - N/A   Clear
11:35 PM 52.7 °F 44.6 °F 74% 30.12 in 10.0 mi South 6.9 mph - N/A   Clear
11:55 PM 52.7 °F 44.6 °F 74% 30.11 in 10.0 mi South 6.9 mph - N/A   Clear